Find WHDW 01-06

NORAD ID: 62328 Int'l Des: 2024-240 Owner: ZXW Country: CN Constellation: xingwang operational
LEOCIRCULARPOLARONEWEB_TYPE

リアルタイム位置

3D地球を読み込み中...

WHDW 01-06について

説明を読み込み中...

次回通過

Passes for default location (London). Set your location on the main map for personalized predictions.

高度履歴

Loading altitude history...

軌道要素

1 62328U 24240F 26106.84176926 .00000035 00000-0 47340-4 0 9991
2 62328 86.5031 3.8118 0002032 70.2444 289.8909 13.24413465 64520
Epoch: Apr 16, 2026 • Age: 5 hours

現在のステータス

高度 1180.2 km
速度 7.26 km/s
衛星直下点 -31.95°S, 134.14°E
打ち上げ日 Dec 16, 2024
運用期間 1.3 years
タイプ other

技術仕様

分類 Payload
質量 800.00 kg
乾燥質量 800.00 kg
総質量 800.00 kg
長さ 3.00 m
直径 1.00 m
スパン 10.00 m
形状 Box + 2 Pan
製造者 CAST
バスタイプ Xingwang CL
フェーズステータス In Orbit
所有者/国 ZXW/CN

Most Searched